Location: Unspecified
(0.0000°N, 0.0000°E)
Time: 12:30:26
(UTC+00:00)

Explorer 11/Cluster Stage 4 - Visible Passes

Search period start: 12 April 2021 00:00
Search period end: 22 April 2021 00:00
Orbit: 467 x 1257 km, 28.8° (Epoch: 11 April)

Date Brightness Start Highest point End Pass type
(mag) Time Alt. Az. Time Alt. Az. Time Alt. Az.
12 Apr 8.1 04:27:14 12° SSE 04:28:19 13° SSE 04:30:13 10° ESE visible
12 Apr 8.1 19:00:59 10° W 19:08:11 42° SSW 19:13:19 15° SSE visible
13 Apr 7.9 04:17:20 16° SSE 04:17:27 16° SSE 04:19:57 10° ESE visible
13 Apr 8.4 18:49:58 10° W 18:57:03 37° SSW 19:03:10 10° SSE visible
14 Apr 7.9 04:07:25 19° SE 04:07:25 19° SE 04:09:30 10° E visible
14 Apr 8.7 18:39:01 10° W 18:45:55 32° SSW 18:52:00 10° SSE visible
15 Apr 8.1 03:57:30 18° ESE 03:57:30 18° ESE 03:58:56 10° E visible
15 Apr 8.9 18:28:09 10° W 18:34:48 28° SSW 18:40:48 10° SSE visible
16 Apr 8.6 03:47:33 15° E 03:47:33 15° E 03:48:17 10° E visible
16 Apr 7.1 05:29:58 10° W 05:33:04 25° NNW 05:36:25 10° NNE visible
16 Apr 9.1 18:17:21 10° W 18:23:41 25° SSW 18:29:31 10° SSE visible
17 Apr 9.0 03:37:35 10° ENE 03:37:35 10° ENE 03:37:35 10° ENE visible
17 Apr 7.4 05:19:43 10° WNW 05:22:15 18° NNW 05:25:02 10° NNE visible
18 Apr 7.7 05:09:41 11° WNW 05:11:26 14° NNW 05:13:28 10° N visible
19 Apr 7.9 04:59:54 10° NW 05:00:37 10° NNW 05:01:20 10° NNW visible
